Location: Lone Wolf Observatory
(41.0360°N, 89.2260°W)
Time: 04:10:30
(UTC-06:00)

Amateur Radio Satellites - All Passes

Search period start: 19 December 2014 03:40
Search period end: 20 December 2014 03:40
Location: Lone Wolf Observatory, 41.0360°N, 89.2260°W

Satellite Date Start Highest point End Downlink Frequencies (MHz)
Time Altitude Azimuth
PRISM 19 Dec 03:59:09 04:00:28 11° 62° (ENE) 04:01:48 437.425
MOZHAYETS 4 19 Dec 04:07:44 04:12:22 90° 257° (WSW) 04:17:04
AIST 1 19 Dec 04:22:53 04:26:40 31° 270° (W) 04:30:25
GONETS M04 19 Dec 04:32:00 04:39:23 31° 83° (E) 04:46:45
HORYU 2 19 Dec 04:34:20 04:37:30 19° 295° (WNW) 04:40:38 437.375
AO-7 19 Dec 04:50:50 04:59:12 75° 291° (WNW) 05:07:30 29.400- 29.500
STRAND 1 19 Dec 04:54:38 04:58:30 22° 64° (ENE) 05:02:22 437.568
VERMONT LUNAR 19 Dec 05:04:16 05:07:47 73° 171° (S) 05:11:19 437.305
PHONESAT 2.4 19 Dec 05:09:32 05:13:08 64° 167° (SSE) 05:16:44 2401.200-2431.200
SO-50 19 Dec 05:11:47 05:16:04 29° 47° (NE) 05:20:22 436.795
CUTE-I 19 Dec 05:13:00 05:16:35 18° 92° (E) 05:20:09 437.470
JAS-2 19 Dec 05:21:47 05:27:33 81° 285° (WNW) 05:32:48 435.910
CUBESAT XI-V 19 Dec 05:26:00 05:30:27 44° 72° (ENE) 05:34:53 437.345
PRISM 19 Dec 05:31:13 05:35:26 69° 258° (WSW) 05:39:40 437.425
Cubesat XI-IV 19 Dec 06:17:54 06:23:14 74° 103° (ESE) 06:28:32 437.490
GONETS M04 19 Dec 06:27:01 06:35:40 58° 283° (WNW) 06:44:22
STRAND 1 19 Dec 06:32:28 06:37:22 46° 261° (W) 06:42:17 437.568
VERMONT LUNAR 19 Dec 06:42:33 06:46:06 77° 188° (S) 06:49:38 437.305
AO-7 19 Dec 06:45:33 06:50:36 18° 312° (NW) 06:55:38 29.400- 29.500
PHONESAT 2.4 19 Dec 06:48:09 06:51:47 82° 185° (S) 06:55:26 2401.200-2431.200
CUTE-I 19 Dec 06:51:48 06:57:00 56° 288° (WNW) 07:02:10 437.470
SO-50 19 Dec 06:52:10 06:56:43 39° 245° (WSW) 07:01:15 436.795
CUBESAT XI-V 19 Dec 07:04:51 07:08:05 18° 268° (W) 07:11:19 437.345
JAS-2 19 Dec 07:09:56 07:11:31 11° 306° (NW) 07:13:04 435.910
BRITE-PL 19 Dec 07:29:45 07:30:53 11° 90° (E) 07:32:01 437.365/2234.400
CANX-2 19 Dec 07:56:23 07:59:25 18° 93° (E) 08:02:25 2200.000
Cubesat XI-IV 19 Dec 07:59:42 08:02:40 15° 300° (WNW) 08:05:39 437.490
GOMX 1 19 Dec 08:02:51 08:06:09 18° 93° (E) 08:09:33 467.674
HO-68 19 Dec 08:10:27 08:16:52 35° 97° (E) 08:23:13 435.675
VERMONT LUNAR 19 Dec 08:21:02 08:24:12 31° 204° (SSW) 08:27:22 437.305
COMPASS 1 19 Dec 08:22:29 08:25:55 23° 94° (E) 08:29:19 437.405
SEEDS 19 Dec 08:25:32 08:29:20 30° 96° (E) 08:33:06 437.485
CUTE 1.7 + AOD 2 19 Dec 08:26:41 08:30:41 36° 97° (E) 08:34:38 437.475
PHONESAT 2.4 19 Dec 08:26:55 08:30:20 40° 201° (SSW) 08:33:46 2401.200-2431.200
GONETS M04 19 Dec 08:32:55 08:34:45 11° 306° (NW) 08:36:35
DOVE 4 19 Dec 08:35:06 08:39:14 29° 96° (E) 08:43:32 437.250
MaSat-1 19 Dec 08:41:07 08:43:20 36° 113° (ESE) 08:45:28 437.345
UNISAT 6 19 Dec 08:46:55 08:50:01 19° 65° (ENE) 08:53:10 437.425
DELFI C3 19 Dec 08:49:19 08:51:56 16° 92° (E) 08:54:32 145.870
YUBILEINY 19 Dec 08:49:33 08:52:19 12° 56° (NE) 08:55:04 435.215
CUSAT 1 19 Dec 08:54:32 08:57:19 22° 85° (E) 09:00:44 437.405
Oscar 11 19 Dec 08:57:45 09:01:23 25° 95° (E) 09:05:00 145.826/435.025
BRITE-PL 19 Dec 09:05:07 09:09:46 78° 284° (WNW) 09:14:48 437.365/2234.400
UKube-1 19 Dec 09:05:27 09:08:49 22° 95° (E) 09:12:10 .
CUBEBUG 2 19 Dec 09:06:29 09:10:06 22° 94° (E) 09:13:45 437.445
DUCHIFAT 1 19 Dec 09:06:36 09:09:35 19° 66° (ENE) 09:12:34 145.980
CINEMA 3 19 Dec 09:12:02 09:16:30 41° 98° (E) 09:21:07 145.822/145.860
BUGSAT 1 19 Dec 09:13:29 09:16:16 18° 66° (ENE) 09:19:03 437.445
ANTELSAT 19 Dec 09:17:30 09:21:34 39° 71° (ENE) 09:25:44 437.575/2403.000
QB50P2 19 Dec 09:18:22 09:21:53 26° 68° (ENE) 09:25:24 145.880/145.840
VELOX 1 19 Dec 09:22:25 09:23:40 11° 90° (E) 09:24:56 145.980
AAUSAT CUBESAT 2 19 Dec 09:23:16 09:27:32 80° 284° (WNW) 09:31:45 437.432
ZACube-1 19 Dec 09:23:55 09:27:35 24° 95° (E) 09:31:16 437.345
POLYITAN 1 19 Dec 09:26:22 09:30:06 31° 70° (ENE) 09:33:51 437.675
NANOSAT C BR1 19 Dec 09:29:56 09:33:43 34° 70° (ENE) 09:37:32 145.865
CANX-2 19 Dec 09:31:28 09:35:29 38° 289° (WNW) 09:39:28 2200.000
DANDE 19 Dec 09:37:59 09:41:13 58° 95° (E) 09:45:32 436.750
GOMX 1 19 Dec 09:39:54 09:44:25 48° 287° (WNW) 09:49:15 467.674
QB50P1 19 Dec 09:43:45 09:47:48 49° 73° (ENE) 09:51:52 145.935-145.965
UWE-3 19 Dec 09:47:20 09:51:48 50° 99° (E) 09:56:19 435.000/436.395/437.385
FUNcube-1 19 Dec 09:50:38 09:54:59 45° 99° (E) 09:59:22 145.935
O/OREOS (USA 219) 19 Dec 09:52:02 09:55:57 28° 60° (ENE) 09:59:51 437.305
TIGRISAT 19 Dec 09:53:43 09:58:03 84° 257° (WSW) 10:02:31 435.000
COMPASS 1 19 Dec 09:57:56 10:01:38 29° 290° (WNW) 10:05:19 437.405
HO-68 19 Dec 09:57:56 10:04:40 46° 294° (WNW) 10:11:21 435.675
SEEDS 19 Dec 10:01:35 10:05:01 24° 292° (WNW) 10:08:25 437.485
AISAT 19 Dec 10:02:24 10:06:23 32° 97° (E) 10:10:21 437.250
CUTE 1.7 + AOD 2 19 Dec 10:03:11 10:06:21 20° 293° (WNW) 10:09:31 437.475
PHONESAT 2.4 19 Dec 10:07:39 10:08:26 11° 215° (SW) 10:09:13 2401.200-2431.200
DX 1 19 Dec 10:08:01 10:12:21 73° 285° (WNW) 10:16:40 434.975-435.025
POPSAT HIP 1 19 Dec 10:12:05 10:16:17 79° 257° (WSW) 10:20:31 437.405
DOVE 4 19 Dec 10:12:48 10:16:56 31° 290° (WNW) 10:21:17 437.250
CUBEBUG 1 19 Dec 10:14:59 10:17:40 16° 92° (E) 10:20:21 437.445
RS-15 19 Dec 10:17:33 10:25:41 25° 102° (ESE) 10:33:46 29.354- 29.394
UNISAT 6 19 Dec 10:22:25 10:26:30 40° 262° (W) 10:30:41 437.425
DELFI C3 19 Dec 10:23:30 10:27:22 39° 288° (WNW) 10:31:12 145.870
50 SAT 19 Dec 10:25:34 10:29:37 50° 100° (E) 10:33:39 437.505
Oscar 11 19 Dec 10:33:46 10:37:31 28° 291° (WNW) 10:41:14 145.826/435.025
HUMSAT D 19 Dec 10:35:46 10:40:07 84° 103° (ESE) 10:44:28 437.325/437.525
CUSAT 1 19 Dec 10:37:22 10:40:18 22° 294° (WNW) 10:43:55 437.405
UKube-1 19 Dec 10:41:09 10:45:01 33° 291° (WNW) 10:48:52 .
DUCHIFAT 1 19 Dec 10:41:19 10:45:11 36° 262° (W) 10:49:05 145.980
YUBILEINY 19 Dec 10:42:33 10:51:11 62° 78° (ENE) 10:59:45 435.215
CUBEBUG 2 19 Dec 10:42:37 10:46:52 37° 289° (WNW) 10:51:12 437.445
BUGSAT 1 19 Dec 10:47:42 10:51:30 36° 262° (W) 10:55:18 437.445
CINEMA 3 19 Dec 10:49:52 10:53:27 22° 293° (WNW) 10:57:09 145.822/145.860
ESTCUBE 1 19 Dec 10:53:21 10:57:40 45° 99° (E) 11:01:58 437.505/2401.250
QB50P2 19 Dec 10:54:11 10:57:43 26° 264° (W) 11:01:17 145.880/145.840
ANTELSAT 19 Dec 10:55:30 10:58:32 18° 268° (W) 11:01:38 437.575/2403.000
VELOX 1 19 Dec 10:56:17 11:00:41 66° 286° (WNW) 11:05:03 145.980
ZACube-1 19 Dec 10:59:55 11:03:58 33° 290° (WNW) 11:08:03 437.345
POLYITAN 1 19 Dec 11:02:52 11:06:05 21° 266° (W) 11:09:19 437.675
NANOSAT C BR1 19 Dec 11:06:37 11:09:41 20° 266° (W) 11:12:46 145.865
QB50P1 19 Dec 11:21:49 11:23:58 14° 269° (W) 11:26:07 145.935-145.965
UWE-3 19 Dec 11:24:59 11:27:57 17° 295° (WNW) 11:30:57 435.000/436.395/437.385
Oscar 19 19 Dec 11:25:06 11:28:35 19° 62° (ENE) 11:32:05 437.125/150
FUNcube-1 19 Dec 11:27:54 11:31:00 18° 294° (WNW) 11:34:07 145.935
SPROUT 19 Dec 11:28:18 11:31:47 24° 95° (E) 11:35:15 437.525
TISAT 1 19 Dec 11:29:45 11:33:18 26° 96° (E) 11:36:51 437.305
O/OREOS (USA 219) 19 Dec 11:31:26 11:35:17 28° 256° (WSW) 11:39:08 437.305
AISAT 19 Dec 11:39:19 11:42:51 24° 293° (WNW) 11:46:22 437.250
CUBEBUG 1 19 Dec 11:50:08 11:54:15 44° 288° (WNW) 11:58:22 437.445
50 SAT 19 Dec 12:02:11 12:04:25 14° 296° (WNW) 12:06:39 437.505
BEESAT 2 19 Dec 12:16:57 12:18:06 11° 107° (ESE) 12:19:16 435.950
RS-15 19 Dec 12:25:41 12:36:39 83° 303° (WNW) 12:47:42 29.354- 29.394
ESTCUBE 1 19 Dec 12:31:11 12:34:11 18° 295° (WNW) 12:37:11 437.505/2401.250
YUBILEINY 19 Dec 12:40:22 12:47:18 28° 278° (W) 12:54:15 435.215
PCSat 19 Dec 13:00:55 13:05:22 27° 108° (ESE) 13:09:49 145.827
Gurwin Techsat 1B 19 Dec 13:02:24 13:07:08 34° 68° (ENE) 13:11:54 435.225
Oscar 19 19 Dec 13:02:26 13:07:27 56° 259° (W) 13:12:33 437.125/150
SPROUT 19 Dec 13:04:07 13:07:51 29° 291° (WNW) 13:11:35 437.525
TISAT 1 19 Dec 13:05:32 13:09:04 26° 291° (WNW) 13:12:35 437.305
ITUPSAT 1 19 Dec 13:12:38 13:17:16 48° 100° (E) 13:21:51 437.325
SWISSCUBE 19 Dec 13:12:43 13:17:23 54° 100° (E) 13:22:01 437.505
AIST 2 19 Dec 13:12:57 13:16:12 22° 112° (ESE) 13:19:29 435.215
BEESAT 3 19 Dec 13:13:09 13:17:08 52° 118° (ESE) 13:21:10 437.485
ITAMSAT 1 19 Dec 13:14:54 13:20:03 73° 74° (ENE) 13:25:14 435.822/435.867
KKS-1 19 Dec 13:28:19 13:30:43 14° 91° (E) 13:33:06 437.445
BEESAT 19 Dec 13:37:57 13:42:45 90° 127° (SE) 13:47:31 436.000
AUBIESAT-1 19 Dec 13:41:10 13:45:05 32° 100° (E) 13:48:40 437.475
ISS 19 Dec 13:42:10 13:45:21 48° 139° (SE) 13:48:33 145.825
BEESAT 2 19 Dec 13:51:39 13:55:45 68° 304° (NW) 13:59:56 435.950
HORYU 2 19 Dec 13:55:20 13:59:29 40° 71° (ENE) 14:03:41 437.375
AO-7 19 Dec 13:58:09 14:05:22 34° 58° (ENE) 14:12:36 29.400- 29.500
M-CUBED/EXP-1 PRIME 19 Dec 14:05:28 14:09:54 68° 106° (ESE) 14:13:54 437.505
RS-15 19 Dec 14:41:43 14:50:53 30° 330° (NNW) 15:00:13 29.354- 29.394
Gurwin Techsat 1B 19 Dec 14:42:29 14:47:05 30° 264° (W) 14:51:44 435.225
GONETS M04 19 Dec 14:43:02 14:47:30 15° 58° (ENE) 14:51:55
PCSat 19 Dec 14:43:22 14:48:31 44° 306° (NW) 14:53:43 145.827
AIST 2 19 Dec 14:50:37 14:54:35 38° 309° (NW) 14:58:37 435.215
ITUPSAT 1 19 Dec 14:51:29 14:54:46 19° 296° (WNW) 14:58:03 437.325
SWISSCUBE 19 Dec 14:51:46 14:54:48 17° 297° (WNW) 14:57:51 437.505
BEESAT 3 19 Dec 14:52:43 14:55:37 18° 316° (NW) 14:58:32 437.485
ITAMSAT 1 19 Dec 14:57:41 15:00:04 13° 270° (W) 15:02:27 435.822/435.867
STARS 19 Dec 15:02:21 15:06:48 81° 285° (WNW) 15:11:14 437.465
KKS-1 19 Dec 15:03:18 15:07:39 53° 287° (WNW) 15:12:00 437.445
AUBIESAT-1 19 Dec 15:16:22 15:19:51 23° 299° (WNW) 15:23:07 437.475
AIST 1 19 Dec 15:17:01 15:18:54 13° 84° (E) 15:20:46
BEESAT 19 Dec 15:18:50 15:19:50 11° 301° (WNW) 15:20:50 436.000
ISS 19 Dec 15:19:14 15:22:05 26° 336° (NNW) 15:24:55 145.825
JAS-2 19 Dec 15:31:29 15:38:44 48° 69° (ENE) 15:45:25 435.910
HORYU 2 19 Dec 15:33:08 15:36:18 19° 267° (W) 15:39:30 437.375
BEESAT 2 19 Dec 15:34:15 15:34:49 10° 323° (NW) 15:35:24 435.950
M-CUBED/EXP-1 PRIME 19 Dec 15:42:13 15:44:14 13° 305° (NW) 15:46:10 437.505
AO-7 19 Dec 15:49:37 15:57:44 57° 257° (WSW) 16:05:57 29.400- 29.500
Cubesat XI-IV 19 Dec 16:02:34 16:05:47 17° 61° (ENE) 16:09:00 437.490
MOZHAYETS 4 19 Dec 16:03:59 16:07:34 22° 93° (E) 16:11:08
CUTE-I 19 Dec 16:34:32 16:39:07 30° 67° (ENE) 16:43:43 437.470
GONETS M04 19 Dec 16:37:16 16:46:04 73° 81° (E) 16:54:44
AIST 1 19 Dec 16:51:45 16:56:02 53° 280° (W) 17:00:20
ISS 19 Dec 16:57:50 16:59:31 13° 356° (N) 17:01:12 145.825
RS-15 19 Dec 17:00:43 17:08:23 20° 6° (N) 17:16:12 29.354- 29.394
PRISM 19 Dec 17:15:44 17:18:24 17° 93° (E) 17:21:03 437.425
JAS-2 19 Dec 17:16:53 17:23:47 35° 264° (W) 17:30:16 435.910
CUBESAT XI-V 19 Dec 17:25:37 17:26:46 11° 89° (E) 17:27:55 437.345
Cubesat XI-IV 19 Dec 17:39:59 17:45:17 69° 258° (WSW) 17:50:37 437.490
MOZHAYETS 4 19 Dec 17:40:39 17:44:53 36° 290° (WNW) 17:49:05
MaSat-1 19 Dec 18:11:49 18:14:12 58° 64° (ENE) 18:16:42 437.345
CUTE-I 19 Dec 18:14:16 18:19:05 34° 263° (W) 18:23:54 437.470
ISS 19 Dec 18:34:42 18:37:05 18° 17° (NNE) 18:39:28 145.825
GONETS M04 19 Dec 18:35:34 18:41:56 23° 280° (W) 18:48:17
DANDE 19 Dec 18:36:03 18:39:42 14° 62° (ENE) 18:43:33 436.750
HO-68 19 Dec 18:39:37 18:45:23 27° 59° (ENE) 18:51:09 435.675
BRITE-PL 19 Dec 18:42:09 18:43:00 11° 62° (ENE) 18:43:50 437.365/2234.400
STRAND 1 19 Dec 18:42:53 18:47:55 60° 101° (ESE) 18:52:56 437.568
PRISM 19 Dec 18:50:13 18:54:06 39° 289° (WNW) 18:57:57 437.425
CANX-2 19 Dec 18:50:34 18:52:50 14° 64° (ENE) 18:55:06 2200.000
CUBESAT XI-V 19 Dec 19:00:06 19:04:42 71° 285° (WNW) 19:09:15 437.345
GOMX 1 19 Dec 19:12:27 19:15:02 16° 65° (ENE) 19:17:39 467.674
RS-15 19 Dec 19:14:50 19:25:09 40° 40° (NE) 19:35:49 29.354- 29.394
COMPASS 1 19 Dec 19:14:56 19:17:41 17° 65° (ENE) 19:20:27 437.405
SEEDS 19 Dec 19:18:23 19:21:39 22° 67° (ENE) 19:24:56 437.485
CUTE 1.7 + AOD 2 19 Dec 19:20:01 19:23:35 26° 69° (ENE) 19:27:10 437.475
CUSAT 1 19 Dec 19:30:34 19:37:34 38° 72° (ENE) 19:45:16 437.405
DELFI C3 19 Dec 19:39:35 19:40:54 11° 63° (ENE) 19:42:13 145.870
DOVE 4 19 Dec 19:41:55 19:45:17 25° 68° (ENE) 19:48:42 437.250
Oscar 11 19 Dec 19:53:03 19:56:16 21° 66° (ENE) 19:59:29 145.826/435.025
UKube-1 19 Dec 20:01:00 20:04:08 20° 65° (ENE) 20:07:17 .
CUBEBUG 2 19 Dec 20:06:02 20:08:46 17° 65° (ENE) 20:11:33 437.445
ISS 19 Dec 20:10:49 20:14:06 79° 36° (NE) 20:17:21 145.825
AAUSAT CUBESAT 2 19 Dec 20:14:15 20:18:25 68° 75° (ENE) 20:22:38 437.432
CINEMA 3 19 Dec 20:14:38 20:18:21 33° 70° (ENE) 20:22:10 145.822/145.860
DANDE 19 Dec 20:16:43 20:24:15 65° 78° (ENE) 20:32:51 436.750
BRITE-PL 19 Dec 20:16:49 20:21:00 66° 259° (W) 20:25:07 437.365/2234.400
VELOX 1 19 Dec 20:21:02 20:22:23 11° 61° (ENE) 20:23:44 145.980
ZACube-1 19 Dec 20:21:03 20:23:55 18° 65° (ENE) 20:26:48 437.345
STRAND 1 19 Dec 20:23:22 20:26:37 17° 298° (WNW) 20:29:52 437.568
CANX-2 19 Dec 20:24:08 20:28:18 53° 260° (W) 20:32:31 2200.000
HO-68 19 Dec 20:25:29 20:32:35 62° 257° (WSW) 20:39:42 435.675
BEESAT 2 19 Dec 20:36:04 20:37:04 11° 37° (NE) 20:38:04 435.950
UWE-3 19 Dec 20:45:03 20:48:54 38° 71° (ENE) 20:52:52 435.000/436.395/437.385
FUNcube-1 19 Dec 20:47:03 20:50:48 33° 70° (ENE) 20:54:38 145.935
GOMX 1 19 Dec 20:48:58 20:52:53 40° 262° (W) 20:56:48 467.674
COMPASS 1 19 Dec 20:49:05 20:53:04 42° 262° (W) 20:57:07 437.405
SEEDS 19 Dec 20:53:30 20:57:17 32° 264° (W) 21:01:07 437.485
CUTE 1.7 + AOD 2 19 Dec 20:55:50 20:59:25 26° 265° (W) 21:03:04 437.475
AISAT 19 Dec 21:00:46 21:04:36 30° 69° (ENE) 21:08:26 437.250
DX 1 19 Dec 21:03:25 21:07:46 85° 256° (WSW) 21:12:08 434.975-435.025
SO-50 19 Dec 21:06:17 21:10:47 73° 120° (ESE) 21:15:27 436.795
DELFI C3 19 Dec 21:11:32 21:15:37 64° 259° (W) 21:19:44 145.870
CUBEBUG 1 19 Dec 21:12:04 21:14:29 15° 64° (ENE) 21:16:53 437.445
CUSAT 1 19 Dec 21:13:24 21:20:46 51° 267° (W) 21:28:54 437.405
50 SAT 19 Dec 21:14:10 21:17:42 31° 70° (ENE) 21:21:17 437.505
DOVE 4 19 Dec 21:19:34 21:23:01 25° 265° (W) 21:26:30 437.250
RS-15 19 Dec 21:27:12 21:38:24 72° 244° (WSW) 21:50:07 29.354- 29.394
HUMSAT D 19 Dec 21:27:59 21:32:02 57° 74° (ENE) 21:36:08 437.325/437.525
Oscar 11 19 Dec 21:28:12 21:32:11 36° 263° (W) 21:36:12 145.826/435.025
BEESAT 3 19 Dec 21:33:09 21:36:57 33° 50° (NE) 21:40:42 437.485
AIST 2 19 Dec 21:34:45 21:37:44 18° 43° (NE) 21:40:40 435.215
UKube-1 19 Dec 21:36:01 21:40:02 37° 262° (W) 21:44:05 .
CUBEBUG 2 19 Dec 21:41:13 21:45:09 40° 262° (W) 21:49:11 437.445
TIGRISAT 19 Dec 21:46:19 21:49:56 22° 94° (E) 21:53:32 435.000
PCSat 19 Dec 21:48:22 21:52:44 24° 47° (NE) 21:57:04 145.827
ISS 19 Dec 21:49:11 21:50:13 11° 231° (SW) 21:51:15 145.825
CINEMA 3 19 Dec 21:52:42 21:55:41 19° 267° (W) 21:58:44 145.822/145.860
ESTCUBE 1 19 Dec 21:53:01 21:57:17 42° 71° (ENE) 22:01:34 437.505/2401.250
YUBILEINY 19 Dec 21:53:11 21:56:22 12° 74° (ENE) 21:59:31 435.215
VELOX 1 19 Dec 21:53:56 21:58:21 75° 257° (WSW) 22:02:46 145.980
ZACube-1 19 Dec 21:56:06 21:59:59 38° 262° (W) 22:03:58 437.345
POPSAT HIP 1 19 Dec 21:58:50 22:01:40 17° 93° (E) 22:04:29 437.405
DANDE 19 Dec 22:01:00 22:07:22 29° 272° (W) 22:14:21 436.750
BEESAT 2 19 Dec 22:11:54 22:16:06 72° 57° (ENE) 22:20:14 435.950
UNISAT 6 19 Dec 22:14:18 22:18:47 43° 98° (E) 22:23:16 437.425
UWE-3 19 Dec 22:22:51 22:25:38 17° 268° (W) 22:28:27 435.000/436.395/437.385
TISAT 1 19 Dec 22:22:55 22:26:02 20° 67° (ENE) 22:29:08 437.305
SPROUT 19 Dec 22:23:12 22:26:14 19° 66° (ENE) 22:29:16 437.525
FUNcube-1 19 Dec 22:24:12 22:27:15 20° 267° (W) 22:30:21 145.935
DUCHIFAT 1 19 Dec 22:26:31 22:30:25 34° 98° (E) 22:34:18 145.980
BUGSAT 1 19 Dec 22:30:21 22:33:55 29° 97° (E) 22:37:29 437.445
AISAT 19 Dec 22:37:34 22:41:12 25° 265° (W) 22:44:52 437.250
QB50P2 19 Dec 22:39:11 22:43:20 49° 100° (E) 22:47:29 145.880/145.840
ANTELSAT 19 Dec 22:45:59 22:50:43 89° 283° (WNW) 22:55:27 437.575/2403.000
CUBEBUG 1 19 Dec 22:46:08 22:50:25 54° 260° (W) 22:54:42 437.445
POLYITAN 1 19 Dec 22:47:36 22:51:51 62° 101° (E) 22:56:07 437.675
SO-50 19 Dec 22:48:48 22:51:53 17° 320° (NW) 22:55:01 436.795
50 SAT 19 Dec 22:50:02 22:52:59 20° 266° (W) 22:55:58 437.505
NANOSAT C BR1 19 Dec 22:50:41 22:54:56 66° 101° (ESE) 22:59:10 145.865
QB50P1 19 Dec 23:04:55 23:09:11 84° 284° (WNW) 23:13:27 145.935-145.965
HUMSAT D 19 Dec 23:06:55 23:08:13 11° 270° (W) 23:09:31 437.325/437.525
BEESAT 19 Dec 23:10:09 23:11:57 12° 60° (ENE) 23:13:45 436.000
BEESAT 3 19 Dec 23:11:36 23:14:59 24° 247° (WSW) 23:18:19 437.485
AIST 2 19 Dec 23:12:29 23:16:43 58° 242° (WSW) 23:20:52 435.215
M-CUBED/EXP-1 PRIME 19 Dec 23:22:17 23:24:23 13° 55° (NE) 23:26:29 437.505
TIGRISAT 19 Dec 23:22:25 23:26:46 39° 289° (WNW) 23:31:08 435.000
ESTCUBE 1 19 Dec 23:31:11 23:34:20 18° 267° (W) 23:37:30 437.505/2401.250
PCSat 19 Dec 23:31:11 23:36:29 56° 246° (WSW) 23:41:44 145.827
POPSAT HIP 1 19 Dec 23:33:44 23:37:43 40° 289° (WNW) 23:41:43 437.405
YUBILEINY 19 Dec 23:42:47 23:51:28 72° 93° (E) 00:00:08 435.215
RS-15 19 Dec 23:43:04 23:48:45 15° 263° (W) 23:54:33 29.354- 29.394
UNISAT 6 19 Dec 23:51:48 23:55:16 21° 294° (WNW) 23:58:45 437.425
BEESAT 2 19 Dec 23:52:52 23:53:44 11° 253° (WSW) 23:54:35 435.950
TISAT 1 19 Dec 23:57:49 00:01:38 34° 262° (W) 00:05:29 437.305
SPROUT 19 Dec 23:58:05 00:02:03 37° 262° (W) 00:06:03 437.525
DUCHIFAT 1 20 Dec 00:02:54 00:06:03 21° 293° (WNW) 00:09:12 145.980
O/OREOS (USA 219) 20 Dec 00:04:16 00:08:12 31° 104° (ESE) 00:12:09 437.305
BUGSAT 1 20 Dec 00:06:09 00:09:16 22° 292° (WNW) 00:12:22 437.445
QB50P2 20 Dec 00:16:23 00:18:50 15° 296° (WNW) 00:21:18 145.880/145.840
SWISSCUBE 20 Dec 00:19:12 00:23:55 61° 73° (ENE) 00:28:40 437.505
ITUPSAT 1 20 Dec 00:19:21 00:24:02 56° 73° (ENE) 00:28:45 437.325
POLYITAN 1 20 Dec 00:25:26 00:27:17 13° 297° (WNW) 00:29:07 437.675
ANTELSAT 20 Dec 00:26:01 00:26:46 10° 300° (WNW) 00:27:30 437.575/2403.000
KKS-1 20 Dec 00:27:19 00:29:35 14° 63° (ENE) 00:31:50 437.445
NANOSAT C BR1 20 Dec 00:28:45 00:30:15 12° 298° (WNW) 00:31:44 145.865
AUBIESAT-1 20 Dec 00:29:04 00:33:40 47° 67° (ENE) 00:38:22 437.475
BEESAT 20 Dec 00:44:19 00:49:07 81° 257° (WSW) 00:53:56 436.000
M-CUBED/EXP-1 PRIME 20 Dec 00:53:47 00:58:37 89° 71° (ENE) 01:03:35 437.505
Oscar 19 20 Dec 01:14:02 01:19:07 52° 100° (E) 01:24:10 437.125/150
Gurwin Techsat 1B 20 Dec 01:20:15 01:22:43 13° 89° (E) 01:25:10 435.225
ITAMSAT 1 20 Dec 01:28:28 01:32:45 26° 95° (E) 01:37:01 435.822/435.867
YUBILEINY 20 Dec 01:42:14 01:49:04 25° 294° (WNW) 01:55:56 435.215
O/OREOS (USA 219) 20 Dec 01:43:56 01:47:36 25° 302° (WNW) 01:51:18 437.305
STARS 20 Dec 01:59:18 02:03:41 87° 76° (ENE) 02:08:06 437.465
ITUPSAT 1 20 Dec 01:59:26 02:02:16 16° 268° (W) 02:05:06 437.325
SWISSCUBE 20 Dec 01:59:42 02:02:10 14° 269° (W) 02:04:39 437.505
KKS-1 20 Dec 02:01:21 02:05:43 59° 259° (W) 02:10:07 437.445
AUBIESAT-1 20 Dec 02:05:13 02:08:47 21° 263° (W) 02:12:25 437.475
M-CUBED/EXP-1 PRIME 20 Dec 02:33:35 02:34:12 10° 267° (W) 02:34:50 437.505
VERMONT LUNAR 20 Dec 02:47:36 02:50:28 23° 153° (SSE) 02:53:21 437.305
Oscar 19 20 Dec 02:54:18 02:58:03 20° 297° (WNW) 03:01:47 437.125/150
Gurwin Techsat 1B 20 Dec 02:57:55 03:03:13 75° 286° (WNW) 03:08:30 435.225
PHONESAT 2.4 20 Dec 02:58:06 03:00:47 20° 150° (SSE) 03:03:28 2401.200-2431.200
AIST 1 20 Dec 02:59:23 03:03:19 34° 77° (ENE) 03:07:11
MOZHAYETS 4 20 Dec 03:06:14 03:09:45 22° 66° (ENE) 03:13:16
ITAMSAT 1 20 Dec 03:07:34 03:12:19 38° 291° (WNW) 03:17:03 435.822/435.867
HORYU 2 20 Dec 03:23:12 03:27:45 84° 103° (ESE) 03:32:16 437.375
